Location: Newark
(45.0500°N, 41.9667°E)
Time: 07:06:17
(UTC+00:00)

Starlink (trailer) - Pass Details

Date: 30 July 2019
Orbit: 549 x 550 km, 53.0° (Epoch: 21 August)

Event Time Altitude Azimuth Distance (km) Brightness Sun altitude
Rises 23:56:19 0° 302° (WNW) 2,723 7.1 -16.9°
Reaches altitude 10° 23:58:37 10° 308° (NW) 1,828 6.3 -16.7°
Maximum altitude 00:02:39 47° 23° (NNE) 739 4.7 -16.2°
Drops below altitude 10° 00:06:39 10° 98° (E) 1,823 6.7 -15.8°
Sets 00:08:57 0° 105° (ESE) 2,715 7.5 -15.5°
